SCOUT A R/B, 2413

Orbit data source: Space-Track

SCOUT A R/B, 2413 is space debris in LEO originally from a launch on Thu, 18 Aug 1966 UTC launched from the Air Force Western Test Range (AFWTR). Debris objects in space refer to the collection of defunct objects orbiting the Earth. Examples of debris include non-operational satellites, rocket bodies, and fragments generated from explosions, collisions, or faulty payload assembly.

Loading next visibility...
Identifier
2413, 1966-076B
Orbit
LEO
Last TLE update
19 hours ago
Origin
Manufacturer
ABL
Mission
Spacecraft
Bus & Motor
ALTAIR, Unknown motor
Mass
33 kg wet, 33 kg dry
Launch date (UTC)
1966-08-18 (59 years ago)
Launch vehicle
Unknown
Launch site
Air Force Western Test Range (AFWTR)
Object type
Payload
Rocket body
Debris
Shape & HBR
Cyl, 1.5 m
Radar Cross Section
0.687 m², Medium (>0.1 m² and < 1m²)

Expand to show TLE details & history

TLE from 19 hours ago
0 SCOUT A R/B
1 02413U 66076B   25166.78987058  .00000084  00000-0  10961-3 0  9999
2 02413  88.8542 114.4870 0033966  48.5092 311.8966 13.51813049899158
Epoch: 2025-06-15T18:57Z
TLE epoch observation values (Epoch: 2025-06-15T18:57:24.818Z)
Latitude
-0.00003°
Longitude
-74.17633°
Altitude
1,051.71 km
Speed
7.334 km/s
True Right ascension
07h 37m 56s
True Declination
0° 00' 00"
Sunlit
Object was in daylight at epoch
Visualization orbit readout
Latitude
-34.84977°
Longitude
106.5267°
Altitude
1,103.565 km
Speed
7.287 km/s
Apparent Right ascension
16h 39m 20s
Apparent Declination
-51° 54' 14"
Sunlit
Object is in full shadow
Visualization observer readout
Local Sidereal Time
00:26:32
Azimuth
232.335° WSW
Elevation
-45.918°
Doppler factor
1
Orbital elements
Apogee altitude
1,087.919 km
Perigee altitude
1,037.373 km
Semi-major axis
7,440.783 km
Eccentricity
0.0034
Inclination
88.8542°
RAAN
114.487°
Arg. of periapsis
48.5092°
True anomaly
Unknown
Mean anomaly
311.8966°
Eccentric anomaly
Unknown
Mean motion
3.38155 °/min
Orbital period
106.46 mins
BSTAR
0.00010961
Loading maneuver chart data...
Loading SW <> Apogee altitude chart data...
Loading historical data...
Loading historical data...
Loading historical data...
Loading historical data...
Loading historical data...
Loading historical data...
Loading historical data...

SCOUT A R/B Visibility forecast

Observer location: undefined°, undefined°

Span
Click to sort rows by Start time (UTC) header in descending order
Start Az.
Max El. time (UTC)
Max El. Az.
Max El.
End time (UTC)
End Az.
10 mins2025-06-16 19:56:40.736Z135.94° SSE2025-06-16 20:01:40.736Z79.427° E27.826°2025-06-16 20:06:40.736Z22.114° NNE
10 mins2025-06-16 21:43:40.736Z216.608° SW2025-06-16 21:47:40.736Z268.515° W31.859°2025-06-16 21:53:40.736Z342.278° N
5 mins2025-06-17 07:07:40.736Z54.594° ENE2025-06-17 07:09:40.736Z74.545° E14.692°2025-06-17 07:12:40.736Z103.416° ESE
11 mins2025-06-17 08:51:40.736Z357.952° N2025-06-17 08:56:40.736Z309.944° NW44.474°2025-06-17 09:02:40.736Z187.228° SSW
|